Express-OSCAR-53

operational
NORAD ID: 28894 Int'l Des: 2005-043 Owner: ESA Country: I-ESA
LEOCIRCULARRETROGRADESSO

Express-OSCAR-53について

説明を読み込み中...

リアルタイム位置

3D地球を読み込み中...

次回通過

高度履歴

Altitude vs Time

uPlot chart will show altitude changes over time

軌道要素

1 28894U 05043E 26063.36390182 .00001098 00000-0 21282-3 0 9998
2 28894 98.2886 202.3557 0014825 246.1691 113.7958 14.65242246 84920
Epoch: Mar 4, 2026 • Age: 23 hours

現在のステータス

高度 693.4 km
速度 7.51 km/s
衛星直下点 -75.11°S, 158.03°W
打ち上げ日 Oct 27, 2005
運用期間 20.3 years
タイプ other

技術仕様

分類 Payload
質量 77.00 kg
乾燥質量 77.00 kg
総質量 77.00 kg
長さ 1.00 m
直径 0.60 m
スパン 1.80 m
形状 Box + 2 Pan
製造者 ESTEC
バスタイプ SSETI
フェーズステータス In Orbit
所有者/国 ESA/I-ESA

大規模コンステレーション

Loading constellations...